DECAYED

OBJECT C, 59482 (Decayed)

Orbit data source: Space-Track

You're viewing an Uncataloged Satellite

Recently launched and/or uncataloged satellites may have evolving metadata. Metadata may include but not limited to: Owner, Maufacturer, Bus, Motor, and Mission.

OBJECT C, 59482 was a satellite owned by Khrunichev (CIS) in LEO that was launched on Thu, 11 Apr 2024 UTC via an Angara A5/Orion launch vehicle from the Vostochny Cosmodrome (VOSTO). Unknown objects in Earth's orbit typically refer to objects detected orbiting the Earth but have not yet been identified or cataloged. These objects could be anything from previously untracked satellites, spent rocket stages, debris from satellite collisions, or even natural meteoroids temporarily captured by Earth's gravity. This object's orbit decayed before it could be identified.

Not visible in the next 10 days
Identifier
59482, 2024-069C
Orbit
Decayed
Country
Flag of CISCIS
Related business
Manufacturer
Khrunichev
Mission
Decayed spacecraft
Bus & Motor
Unknown
Mass
Unknown
Launch date (UTC)
2024-04-11 (1 year ago)
Launch vehicle
Angara A5/Orion
Launch site
Vostochny Cosmodrome (VOSTO)
Object type
Unknown
Shape & HBR
Unknown
Radar Cross Section
Medium (>0.1 m² and <1 m²)

Expand to show TLE details & history
Last TLE update: 1 year ago

TLE from 1 year ago
0 OBJECT C
1 59482U 24069C   24107.08897067  .05018145  11947-4  19776-2 0  9990
2 59482  51.7047 347.7273 0097770  34.0156 114.6497 16.11995215   750
Epoch: 2024-04-16T02:08Z
TLE epoch observation values (Epoch: 2024-04-16T02:08:07.065Z)
Latitude
23.40758°
Longitude
-88.89085°
Altitude
269.534 km
Speed
7.733 km/s
True Right ascension
09h 51m 25s
True Declination
23° 16' 24"
Sunlit
Object was in full shadow at epoch
Visualization orbit readout
Latitude
Unknown
Longitude
Unknown
Altitude
Unknown
Speed
Unknown
Apparent Right ascension
Unknown
Apparent Declination
Unknown
Sunlit
N/A
Visualization observer readout
Local Sidereal Time
19:54:15
Azimuth
Unknown
Elevation
Unknown
Doppler factor
Unknown
Orbital elements
Apogee altitude
306.61 km
Perigee altitude
177.162 km
Semi-major axis
6,620.023 km
Eccentricity
0.00978
Inclination
51.7047°
RAAN
347.7273°
Arg. of periapsis
34.0156°
True anomaly
115.66275°
Mean anomaly
114.6497°
Eccentric anomaly
115.15675°
Mean motion
4.02953 °/min
Orbital period
89.34 mins
BSTAR
0.0019776
Loading maneuver chart data...
Computing Atmospheric mass density...
Loading historical data...
Loading historical data...
Loading historical data...
Loading historical data...
Loading historical data...
Loading historical data...
Loading historical data...
Other satellites on launch #69 in the year 2024 (2024-04-11 UTC)

Documentation

Showing up to 5 results
|